EW7004 Weather Reports


Display with metric or nautical units.
time (UTC)temp
F
wind
direction
speed
MPH
gust
MPH
rain 1hr
in
rain 24hr
in
rain mn
in
humidity
%
barometer
mb
20260906052904 81 298 0.0 0.0 0.00 0.00 0.00 35 1030.1
20260906052403 81 298 0.0 0.0 0.00 0.00 0.00 35 1030.2
20260906051404 81 298 0.0 0.0 0.00 0.00 0.00 34 1030.1
20260906050903 81 298 0.0 0.0 0.00 0.00 0.00 34 1030.1
20260906050403 81 298 0.0 0.0 0.00 0.00 0.00 33 1030.2
20260906045903 82 298 0.0 0.0 0.00 0.00 0.00 33 1030.3
20260906045403 82 298 0.0 0.0 0.00 0.00 0.00 33 1030.3
20260906044904 82 298 0.0 0.0 0.00 0.00 0.00 33 1030.3
20260906044403 82 298 0.0 0.0 0.00 0.00 0.00 33 1030.3
20260906043903 82 298 0.0 0.0 0.00 0.00 0.00 33 1030.4
20260906043405 82 298 0.0 0.0 0.00 0.00 0.00 33 1030.3
20260906042903 82 298 0.0 0.0 0.00 0.00 0.00 33 1030.3
20260906042403 82 298 0.0 0.0 0.00 0.00 0.00 33 1030.2
20260906041403 82 227 1.0 3.0 0.00 0.00 0.00 33 1030.2
20260906040904 82 209 2.0 5.0 0.00 0.00 0.00 33 1030.2
20260906035904 83 180 3.0 6.0 0.00 0.00 0.00 33 1030.0
20260906035403 83 192 3.0 6.0 0.00 0.00 0.00 33 1030.0
20260906034903 83 175 2.0 3.0 0.00 0.00 0.00 34 1030.0
20260906033903 84 210 5.0 8.0 0.00 0.00 0.00 34 1030.0
20260906033403 84 207 4.0 6.0 0.00 0.00 0.00 34 1030.0
20260906032904 84 259 2.0 3.0 0.00 0.00 0.00 34 1030.0
20260906032403 84 218 3.0 6.0 0.00 0.00 0.00 34 1030.0
20260906031904 84 242 1.0 7.0 0.00 0.00 0.00 35 1030.0
20260906031403 85 232 2.0 3.0 0.00 0.00 0.00 35 1029.9
20260906030903 85 210 2.0 5.0 0.00 0.00 0.00 34 1029.8
20260906030403 85 214 3.0 7.0 0.00 0.00 0.00 34 1029.7
20260906025903 85 209 5.0 10.0 0.00 0.00 0.00 34 1029.7
20260906025403 85 206 5.0 12.0 0.00 0.00 0.00 34 1029.6
20260906024403 86 213 6.0 12.0 0.00 0.00 0.00 34 1029.5
20260906023404 87 206 6.0 13.0 0.00 0.00 0.00 33 1029.3
20260906022904 87 217 9.0 14.0 0.00 0.00 0.00 33 1029.4
20260906021403 88 224 7.0 12.0 0.00 0.00 0.00 33 1029.2
20260906020903 88 215 8.0 14.0 0.00 0.00 0.00 33 1029.2
20260906020403 88 223 9.0 14.0 0.00 0.00 0.00 32 1029.2
20260906015903 88 232 7.0 14.0 0.00 0.00 0.00 32 1029.1
20260906015403 89 222 6.0 14.0 0.00 0.00 0.00 31 1029.0
20260906014904 89 201 8.0 12.0 0.00 0.00 0.00 31 1029.0
20260906013403 90 201 6.0 12.0 0.00 0.00 0.00 30 1029.0
20260906012904 90 195 5.0 10.0 0.00 0.00 0.00 30 1029.0
20260906012404 90 196 5.0 10.0 0.00 0.00 0.00 30 1029.0
20260906011903 90 208 7.0 13.0 0.00 0.00 0.00 30 1029.0
20260906011404 90 203 5.0 10.0 0.00 0.00 0.00 30 1029.0
20260906010904 90 199 7.0 16.0 0.00 0.00 0.00 30 1029.0
20260906010404 90 207 10.0 15.0 0.00 0.00 0.00 29 1029.1
20260906005903 90 224 9.0 12.0 0.00 0.00 0.00 29 1029.1
20260906005403 90 210 10.0 16.0 0.00 0.00 0.00 29 1029.1
20260906004903 90 192 6.0 13.0 0.00 0.00 0.00 30 1029.0
20260906003903 91 208 5.0 13.0 0.00 0.00 0.00 30 1029.0
20260906003403 91 213 7.0 12.0 0.00 0.00 0.00 30 1029.0
20260906002903 91 201 6.0 12.0 0.00 0.00 0.00 30 1028.9
20260906002403 91 217 4.0 12.0 0.00 0.00 0.00 30 1028.9
20260906001903 91 206 5.0 12.0 0.00 0.00 0.00 29 1028.8
20260906001404 91 217 6.0 9.0 0.00 0.00 0.00 29 1028.8
20260906000903 91 180 8.0 16.0 0.00 0.00 0.00 29 1028.9
20260906000403 92 196 6.0 12.0 0.00 0.00 0.00 29 1028.9
20260905235903 92 186 4.0 13.0 0.00 0.00 0.00 29 1028.9
20260905235404 92 215 7.0 13.0 0.00 0.00 0.00 29 1028.8
20260905234904 92 174 5.0 9.0 0.00 0.00 0.00 28 1028.8
20260905234403 92 220 4.0 14.0 0.00 0.00 0.00 28 1028.9
20260905233904 92 200 5.0 12.0 0.00 0.00 0.00 28 1028.9
20260905233404 92 251 9.0 14.0 0.00 0.00 0.00 28 1028.9
20260905232904 92 169 5.0 10.0 0.00 0.00 0.00 28 1028.9
20260905232403 92 183 5.0 10.0 0.00 0.00 0.00 29 1029.0
20260905231904 92 201 5.0 12.0 0.00 0.00 0.00 28 1029.0
20260905231403 92 203 6.0 12.0 0.00 0.00 0.00 28 1029.0
20260905230904 92 166 5.0 12.0 0.00 0.00 0.00 29 1029.0
20260905230404 92 204 4.0 8.0 0.00 0.00 0.00 28 1029.0
20260905225403 92 239 7.0 10.0 0.00 0.00 0.00 26 1029.1
20260905224903 93 219 5.0 13.0 0.00 0.00 0.00 26 1029.0
20260905224404 93 211 3.0 13.0 0.00 0.00 0.00 26 1029.1
20260905223903 93 146 6.0 12.0 0.00 0.00 0.00 25 1029.2
20260905223403 93 208 5.0 10.0 0.00 0.00 0.00 26 1029.2
20260905222903 93 230 6.0 10.0 0.00 0.00 0.00 25 1029.2
20260905221904 93 161 3.0 9.0 0.00 0.00 0.00 25 1029.3
20260905221404 93 192 4.0 10.0 0.00 0.00 0.00 25 1029.4
20260905220904 93 191 6.0 8.0 0.00 0.00 0.00 24 1029.4
20260905215903 93 211 6.0 12.0 0.00 0.00 0.00 26 1029.5
20260905215404 93 199 4.0 12.0 0.00 0.00 0.00 26 1029.6
20260905214904 93 184 7.0 14.0 0.00 0.00 0.00 26 1029.7
20260905214403 93 215 5.0 12.0 0.00 0.00 0.00 24 1029.8
20260905213904 92 203 6.0 13.0 0.00 0.00 0.00 25 1029.9
20260905213403 92 226 5.0 12.0 0.00 0.00 0.00 26 1029.9
20260905212904 92 148 5.0 13.0 0.00 0.00 0.00 25 1030.0
20260905211903 92 184 5.0 10.0 0.00 0.00 0.00 27 1030.1
20260905211403 92 174 6.0 13.0 0.00 0.00 0.00 23 1030.2
20260905210903 92 188 6.0 13.0 0.00 0.00 0.00 24 1030.2
20260905210403 92 239 5.0 9.0 0.00 0.00 0.00 20 1030.3
20260905205403 93 161 6.0 12.0 0.00 0.00 0.00 20 1030.3
20260905204404 92 207 5.0 14.0 0.00 0.00 0.00 21 1030.5
20260905203903 92 236 8.0 13.0 0.00 0.00 0.00 23 1030.5
20260905203404 92 200 6.0 14.0 0.00 0.00 0.00 22 1030.5
20260905202405 91 236 4.0 12.0 0.00 0.00 0.00 19 1030.7
20260905201404 92 239 7.0 12.0 0.00 0.00 0.00 19 1030.9
20260905200904 92 227 7.0 12.0 0.00 0.00 0.00 19 1030.9
20260905195904 91 208 3.0 10.0 0.00 0.00 0.00 17 1031.0
20260905195404 91 206 5.0 13.0 0.00 0.00 0.00 16 1031.0
20260905194403 92 231 8.0 13.0 0.00 0.00 0.00 13 1031.1
20260905193403 92 211 5.0 10.0 0.00 0.00 0.00 15 1031.3
20260905191903 91 173 4.0 6.0 0.00 0.00 0.00 13 1031.6
20260905190903 90 212 4.0 9.0 0.00 0.00 0.00 13 1031.6
20260905190404 90 204 3.0 8.0 0.00 0.00 0.00 16 1031.7
20260905185903 90 323 1.0 3.0 0.00 0.00 0.00 17 1031.7
20260905184404 88 203 2.0 5.0 0.00 0.00 0.00 19 1031.9
20260905183904 87 215 2.0 3.0 0.00 0.00 0.00 18 1031.9
20260905183403 87 257 0.0 3.0 0.00 0.00 0.00 18 1031.9
20260905182904 87 273 3.0 8.0 0.00 0.00 0.00 18 1031.9
20260905182403 86 189 2.0 5.0 0.00 0.00 0.00 18 1032.0
20260905181404 85 345 3.0 5.0 0.00 0.00 0.00 21 1032.1
20260905180903 85 316 3.0 8.0 0.00 0.00 0.00 21 1032.1
20260905180404 85 75 1.0 3.0 0.00 0.00 0.00 21 1032.2
20260905175903 85 323 2.0 6.0 0.00 0.00 0.00 21 1032.1
20260905174904 83 93 1.0 3.0 0.00 0.00 0.00 22 1032.2
20260905173904 82 233 3.0 7.0 0.00 0.00 0.00 23 1032.1
20260905173403 82 281 1.0 7.0 0.00 0.00 0.00 24 1032.1
20260905172903 82 273 2.0 3.0 0.00 0.00 0.00 24 1032.1
20260905171904 81 239 3.0 5.0 0.00 0.00 0.00 23 1032.2
20260905170903 79 219 3.0 5.0 0.00 0.00 0.00 24 1032.0
20260905170403 79 254 2.0 7.0 0.00 0.00 0.00 25 1032.1
20260905165903 79 338 0.0 2.0 0.00 0.00 0.00 29 1032.2
20260905165403 78 5 2.0 3.0 0.00 0.00 0.00 28 1032.1
20260905164903 77 288 1.0 3.0 0.00 0.00 0.00 29 1032.2
20260905164403 77 337 2.0 3.0 0.00 0.00 0.00 29 1032.2
20260905163902 77 302 0.0 1.0 0.00 0.00 0.00 30 1032.1
20260905163403 76 334 2.0 3.0 0.00 0.00 0.00 29 1032.1
20260905162403 76 265 0.0 1.0 0.00 0.00 0.00 30 1032.2
20260905161903 75 118 0.0 0.0 0.00 0.00 0.00 31 1032.2
20260905161403 75 53 0.0 0.0 0.00 0.00 0.00 32 1032.1
20260905160403 73 53 0.0 0.0 0.00 0.00 0.00 32 1032.1
20260905155903 73 313 0.0 0.0 0.00 0.00 0.00 32 1032.1
20260905154903 72 277 0.0 0.0 0.00 0.00 0.00 34 1032.0
20260905154403 71 225 0.0 3.0 0.00 0.00 0.00 34 1032.0
20260905153903 71 211 0.0 0.0 0.00 0.00 0.00 35 1032.0
20260905152903 70 211 0.0 0.0 0.00 0.00 0.00 36 1031.9
20260905152403 69 90 0.0 0.0 0.00 0.00 0.00 37 1031.9
20260905151903 68 90 0.0 0.0 0.00 0.00 0.00 38 1031.8
20260905151403 68 90 0.0 0.0 0.00 0.00 0.00 38 1031.9
20260905150903 67 90 0.0 0.0 0.00 0.00 0.00 39 1031.8
20260905150403 66 90 0.0 0.0 0.00 0.00 0.00 40 1031.9
20260905145903 66 117 0.0 3.0 0.00 0.00 0.00 42 1031.9
20260905145403 65 88 0.0 0.0 0.00 0.00 0.00 42 1031.8
20260905144904 64 88 1.0 2.0 0.00 0.00 0.00 44 1031.7
20260905144403 63 88 0.0 0.0 0.00 0.00 0.00 45 1031.7
20260905143903 62 88 0.0 0.0 0.00 0.00 0.00 46 1031.7
20260905143404 61 88 0.0 1.0 0.00 0.00 0.00 48 1031.7
20260905142903 60 88 0.0 0.0 0.00 0.00 0.00 51 1031.7
20260905142403 59 88 0.0 0.0 0.00 0.00 0.00 50 1031.7
20260905141904 59 88 0.0 0.0 0.00 0.00 0.00 49 1031.6
20260905141404 59 88 0.0 0.0 0.00 0.00 0.00 49 1031.6
20260905140903 59 88 0.0 0.0 0.00 0.00 0.00 49 1031.5
20260905140403 59 88 0.0 0.0 0.00 0.00 0.00 49 1031.5
20260905135403 59 88 0.0 0.0 0.00 0.00 0.00 49 1031.5
20260905134903 59 88 0.0 0.0 0.00 0.00 0.00 48 1031.4
20260905134403 59 88 0.0 0.0 0.00 0.00 0.00 49 1031.4
20260905133403 59 88 0.0 0.0 0.00 0.00 0.00 48 1031.4
20260905132904 59 88 1.0 2.0 0.00 0.00 0.00 48 1031.4
20260905132403 59 88 1.0 3.0 0.00 0.00 0.00 48 1031.4
20260905131903 59 88 1.0 2.0 0.00 0.00 0.00 49 1031.4
20260905131403 59 88 1.0 3.0 0.00 0.00 0.00 49 1031.4
20260905130903 58 94 0.0 3.0 0.00 0.00 0.00 49 1031.3
20260905130403 58 88 0.0 0.0 0.00 0.00 0.00 49 1031.4
20260905125903 59 85 0.0 0.0 0.00 0.00 0.00 49 1031.3
20260905125404 59 85 0.0 0.0 0.00 0.00 0.00 48 1031.2
20260905124904 59 85 0.0 0.0 0.00 0.00 0.00 47 1031.1
20260905124403 59 85 0.0 0.0 0.00 0.00 0.00 47 1031.0
20260905123904 59 85 0.0 0.0 0.00 0.00 0.00 47 1031.0
20260905123403 59 85 0.0 0.0 0.00 0.00 0.00 47 1031.0
20260905122903 59 85 0.0 0.0 0.00 0.00 0.00 47 1030.9
20260905122403 59 85 0.0 0.0 0.00 0.00 0.00 47 1031.0
20260905121903 59 85 0.0 0.0 0.00 0.00 0.00 47 1031.0
20260905121403 59 85 0.0 0.0 0.00 0.00 0.00 47 1030.9
20260905120903 60 85 0.0 2.0 0.00 0.00 0.00 47 1030.9
20260905120404 60 111 0.0 0.0 0.00 0.00 0.00 47 1030.9
20260905115904 60 111 0.0 0.0 0.00 0.00 0.00 46 1031.0
20260905115403 60 111 0.0 0.0 0.00 0.00 0.00 46 1030.9
20260905114903 60 111 0.0 0.0 0.00 0.00 0.00 46 1030.9
20260905114404 60 111 0.0 0.0 0.00 0.00 0.00 45 1030.9
20260905113903 60 111 0.0 0.0 0.00 0.00 0.00 46 1030.9
20260905113403 60 111 0.0 0.0 0.00 0.00 0.00 46 1030.8
20260905112904 60 111 0.0 0.0 0.00 0.00 0.00 46 1030.9
20260905112404 60 111 0.0 0.0 0.00 0.00 0.00 46 1030.9
20260905111903 61 111 0.0 0.0 0.00 0.00 0.00 45 1031.0
20260905111403 61 111 0.0 0.0 0.00 0.00 0.00 44 1031.0
20260905110904 61 111 0.0 0.0 0.00 0.00 0.00 44 1030.9
20260905110403 62 111 0.0 0.0 0.00 0.00 0.00 44 1030.9
20260905105903 62 111 0.0 0.0 0.00 0.00 0.00 44 1031.0
20260905105404 62 111 0.0 0.0 0.00 0.00 0.00 44 1031.0
20260905104903 62 111 0.0 0.0 0.00 0.00 0.00 44 1031.0
20260905104403 62 111 0.0 0.0 0.00 0.00 0.00 44 1031.1
20260905103904 62 111 0.0 2.0 0.00 0.00 0.00 44 1031.1
20260905103404 62 111 2.0 3.0 0.00 0.00 0.00 44 1031.1
20260905102903 62 108 0.0 0.0 0.00 0.00 0.00 44 1031.1
20260905102403 62 71 0.0 0.0 0.00 0.00 0.00 43 1031.2
20260905101903 63 71 0.0 0.0 0.00 0.00 0.00 43 1031.2
20260905101403 63 71 0.0 0.0 0.00 0.00 0.00 42 1031.1
20260905100904 63 71 0.0 0.0 0.00 0.00 0.00 43 1031.1
20260905094903 63 71 0.0 0.0 0.00 0.00 0.00 43 1031.1
20260905094403 63 71 0.0 0.0 0.00 0.00 0.00 43 1031.1
20260905093903 63 71 0.0 0.0 0.00 0.00 0.00 44 1031.2
20260905092904 63 71 0.0 0.0 0.00 0.00 0.00 44 1031.2
20260905092403 63 71 0.0 0.0 0.00 0.00 0.00 43 1031.1
20260905091903 63 71 0.0 0.0 0.00 0.00 0.00 43 1031.1
20260905091403 63 71 0.0 0.0 0.00 0.00 0.00 43 1031.0
20260905090903 64 71 0.0 0.0 0.00 0.00 0.00 42 1031.2
20260905090403 64 71 0.0 1.0 0.00 0.00 0.00 42 1031.2
20260905085903 64 71 0.0 0.0 0.00 0.00 0.00 42 1031.1
20260905085404 64 71 0.0 0.0 0.00 0.00 0.00 41 1031.2
20260905084903 64 71 0.0 0.0 0.00 0.00 0.00 41 1031.2
20260905084403 64 71 0.0 0.0 0.00 0.00 0.00 41 1031.3
20260905083903 65 71 0.0 0.0 0.00 0.00 0.00 40 1031.3
20260905083403 65 71 0.0 0.0 0.00 0.00 0.00 40 1031.4
20260905082904 65 71 0.0 0.0 0.00 0.00 0.00 39 1031.4
20260905081904 65 71 0.0 0.0 0.00 0.00 0.00 39 1031.5
20260905081404 65 71 0.0 0.0 0.00 0.00 0.00 38 1031.6
20260905080904 66 71 0.0 0.0 0.00 0.00 0.00 39 1031.6
20260905080405 66 71 0.0 0.0 0.00 0.00 0.00 39 1031.7
20260905075904 66 71 0.0 0.0 0.00 0.00 0.00 39 1031.7
20260905075403 66 71 0.0 0.0 0.00 0.00 0.00 40 1031.7
20260905074903 66 71 0.0 0.0 0.00 0.00 0.00 39 1031.7
20260905074404 67 71 0.0 0.0 0.00 0.00 0.00 39 1031.7
20260905073904 67 102 0.0 0.0 0.00 0.00 0.00 39 1031.6
20260905073403 67 123 0.0 0.0 0.00 0.00 0.00 40 1031.6
20260905072903 67 123 0.0 0.0 0.00 0.00 0.00 39 1031.6
20260905072404 67 123 0.0 0.0 0.00 0.00 0.00 39 1031.5
20260905071903 67 123 0.0 0.0 0.00 0.00 0.00 38 1031.5
20260905071404 68 123 0.0 0.0 0.00 0.00 0.00 38 1031.5
20260905070903 68 119 0.0 0.0 0.00 0.00 0.00 37 1031.4
20260905070403 68 115 0.0 0.0 0.00 0.00 0.00 37 1031.4
20260905065404 68 115 1.0 3.0 0.00 0.00 0.00 36 1031.3
20260905064904 68 95 0.0 1.0 0.00 0.00 0.00 35 1031.2
20260905064403 69 95 0.0 0.0 0.00 0.00 0.00 35 1031.2
20260905063904 69 129 0.0 0.0 0.00 0.00 0.00 35 1031.3
20260905062904 69 129 0.0 3.0 0.00 0.00 0.00 33 1031.3
20260905062403 69 129 2.0 3.0 0.00 0.00 0.00 33 1031.3
20260905061904 69 127 0.0 2.0 0.00 0.00 0.00 32 1031.3
20260905060403 70 148 0.0 0.0 0.00 0.00 0.00 30 1031.2
20260905055403 71 148 0.0 0.0 0.00 0.00 0.00 29 1031.1
20260905054904 71 149 0.0 0.0 0.00 0.00 0.00 29 1031.2
20260905054404 71 148 0.0 0.0 0.00 0.00 0.00 28 1031.2
20260905053904 71 148 0.0 1.0 0.00 0.00 0.00 26 1031.1
20260905053403 72 191 0.0 0.0 0.00 0.00 0.00 25 1031.2